Погода в Квебеке

Канада     46°48′25″N   71°12′42″W
темп.,
°C
ветер,
м/с
пор.,
м/с
влажн.,
%
обл.,
%
осадки,
мм/ч
давл.,
гПа
погр.,
м
19 июня, сб
сб1923:00+15юз1497100 0.5 1006115
02:00+16ююз31098100 7.6 1003668
05:00+17ююз41298100 9.3 1001712
08:00+17юз41097100 9.9 1001775
11:00+21зюз611830 0.8 10001503
14:00+22зюз611718 1.7 10001720
17:00+19зюз6118261 1.8 10001097
20:00+16з4119391 3.6 1001443
20 июня, вс
вс2023:00+14зюз410975 0.0 1003357
02:00+13зюз399716 0.0 1003264
05:00+13зюз489860 0.0 1004275
08:00+16зюз578765 0.0 1005434
11:00+20зюз577036 0.0 10061038
14:00+23зюз666123 0.0 10051044
17:00+22зюз58775 0.4 1006449
20:00+19зюз23880 1.3 100746
21 июня, пн
пн2123:00+16ююз11945 0.0 100718
02:00+14зюз1195100 0.0 100713
05:00+14вюв1194100 0.0 100614
08:00+17в2487100 0.0 1004195
11:00+18в1287100 0.1 100266
14:00+21вюв2588100 0.8 1001466
17:00+23всв2493100 4.0 997317
20:00+20юз21199100 10.4 998363
22 июня, вт
вт2223:00+20юз51496100 1.4 998662
02:00+20юз6139698 1.9 1000661
05:00+17з5997100 0.3 1001495
08:00+14зюз4794100 0.3 1004282
11:00+11зюз4796100 1.0 1008339
14:00+17зюз4659100 1.0 10081464
17:00+18з4660100 0.0 10091744
20:00+14зсз22745 0.0 101234
23 июня, ср
ср2323:00+10в118467 0.0 101410
02:00+10с11777 0.0 101611
05:00+7з22814 0.0 101814
08:00+12зюз35670 0.0 1020355
11:00+17зюз35471 0.0 10201371
14:00+19юз56471 0.0 10211415
17:00+19зюз45562 0.0 10211050
20:00+16зюз22770 0.0 102224